DLH110 LTFM-EDDC

Flight info

Callsign DLH110
Flight time 2h 14m
Altitude 34000
Route TUDBU1H/18 TUDBU Q26 UPAMA DCT AGNEP DCT SIR DCT DEGET DCT BADOV DCT TEKVI DCT LALES DCT BITSI DCT BODAL DCT VLM DCT BEKVI DCT HDO
Aircraft A321/M-SDE3FGHIRWY/LB1

Departure

Time 2026-05-08 17:54
Airport İstanbul Airport (LTFM)

Arrival

Time 2026-05-08 20:08
Airport Dresden Airport (EDDC)
Time Latitude Longitude Altitude Speed Heading
2026-05-08 16:09 41.26572 28.74696 333 ft 0 kts 90°
2026-05-08 17:32 41.26572 28.74687 333 ft 2 kts 90°
2026-05-08 17:32 41.26572 28.74667 333 ft 2 kts 90°
2026-05-08 17:32 41.26572 28.74647 333 ft 2 kts 90°
2026-05-08 17:32 41.26574 28.74627 333 ft 2 kts 124°
2026-05-08 17:33 41.26586 28.74613 333 ft 2 kts 162°
2026-05-08 17:33 41.26601 28.74612 333 ft 2 kts 186°
2026-05-08 17:33 41.26616 28.74612 333 ft 2 kts 176°
2026-05-08 17:33 41.26626 28.74612 333 ft 0 kts 179°
2026-05-08 17:34 41.26627 28.74612 333 ft 0 kts 179°
2026-05-08 17:38 41.26626 28.74612 333 ft 0 kts 179°
2026-05-08 17:38 41.26623 28.74612 333 ft 1 kts 179°
2026-05-08 17:38 41.26611 28.74612 333 ft 2 kts 179°
2026-05-08 17:38 41.26591 28.74612 333 ft 3 kts 182°
2026-05-08 17:39 41.26568 28.74600 333 ft 3 kts 218°
2026-05-08 17:39 41.26558 28.74564 333 ft 4 kts 261°
2026-05-08 17:39 41.26556 28.74517 333 ft 5 kts 271°
2026-05-08 17:39 41.26576 28.74474 333 ft 6 kts 336°
2026-05-08 17:40 41.26622 28.74468 333 ft 7 kts
2026-05-08 17:40 41.26675 28.74466 333 ft 8 kts 359°
2026-05-08 17:40 41.26734 28.74465 333 ft 8 kts 359°
2026-05-08 17:40 41.26799 28.74464 333 ft 9 kts 359°
2026-05-08 17:41 41.26846 28.74463 333 ft 4 kts 359°
2026-05-08 17:41 41.26870 28.74462 333 ft 3 kts 359°
2026-05-08 17:41 41.26898 28.74462 333 ft 4 kts 359°
2026-05-08 17:41 41.26932 28.74461 333 ft 5 kts 360°
2026-05-08 17:42 41.26974 28.74461 333 ft 6 kts 360°
2026-05-08 17:42 41.27021 28.74460 333 ft 7 kts 359°
2026-05-08 17:42 41.27074 28.74459 333 ft 8 kts 359°
2026-05-08 17:42 41.27125 28.74484 333 ft 8 kts 55°
2026-05-08 17:43 41.27135 28.74564 333 ft 9 kts 88°
2026-05-08 17:43 41.27137 28.74655 333 ft 10 kts 88°
2026-05-08 17:43 41.27137 28.74754 333 ft 10 kts 90°
2026-05-08 17:43 41.27138 28.74859 333 ft 11 kts 90°
2026-05-08 17:44 41.27139 28.74968 333 ft 12 kts 89°
2026-05-08 17:44 41.27141 28.75085 333 ft 12 kts 89°
2026-05-08 17:44 41.27142 28.75206 333 ft 13 kts 90°
2026-05-08 17:44 41.27144 28.75311 333 ft 9 kts 86°
2026-05-08 17:45 41.27186 28.75366 333 ft 9 kts
2026-05-08 17:45 41.27258 28.75365 333 ft 10 kts 359°
2026-05-08 17:45 41.27335 28.75364 333 ft 11 kts 359°
2026-05-08 17:45 41.27416 28.75362 333 ft 12 kts 359°
2026-05-08 17:46 41.27501 28.75361 332 ft 12 kts 359°
2026-05-08 17:46 41.27590 28.75359 333 ft 13 kts 359°
2026-05-08 17:46 41.27683 28.75357 332 ft 13 kts 359°
2026-05-08 17:46 41.27778 28.75355 332 ft 13 kts 359°
2026-05-08 17:47 41.27876 28.75354 333 ft 14 kts 359°
2026-05-08 17:47 41.27975 28.75352 332 ft 14 kts 359°
2026-05-08 17:47 41.28077 28.75350 332 ft 14 kts 359°
2026-05-08 17:47 41.28145 28.75349 332 ft 14 kts 359°
2026-05-08 17:48 41.28284 28.75346 332 ft 15 kts 359°
2026-05-08 17:48 41.28389 28.75344 332 ft 15 kts 359°
2026-05-08 17:48 41.28496 28.75342 332 ft 15 kts 359°
2026-05-08 17:48 41.28604 28.75340 332 ft 15 kts 359°
2026-05-08 17:49 41.28713 28.75338 332 ft 15 kts 359°
2026-05-08 17:49 41.28821 28.75336 332 ft 15 kts 359°
2026-05-08 17:49 41.28899 28.75334 332 ft 6 kts 359°
2026-05-08 17:49 41.28930 28.75339 332 ft 4 kts 15°
2026-05-08 17:50 41.28957 28.75363 332 ft 5 kts 50°
2026-05-08 17:50 41.28965 28.75411 332 ft 4 kts 88°
2026-05-08 17:50 41.28966 28.75450 332 ft 4 kts 87°
2026-05-08 17:50 41.28968 28.75477 332 ft 1 kts 88°
2026-05-08 17:51 41.28968 28.75480 332 ft 0 kts 88°
2026-05-08 17:51 41.28968 28.75482 332 ft 0 kts 88°
2026-05-08 17:51 41.28968 28.75492 332 ft 1 kts 89°
2026-05-08 17:51 41.28968 28.75514 332 ft 3 kts 91°
2026-05-08 17:52 41.28967 28.75554 332 ft 5 kts 91°
2026-05-08 17:52 41.28953 28.75606 332 ft 6 kts 139°
2026-05-08 17:52 41.28930 28.75616 332 ft 0 kts 175°
2026-05-08 17:53 41.28796 28.75621 332 ft 54 kts 179°
2026-05-08 17:53 41.28173 28.75633 333 ft 122 kts 179°
2026-05-08 17:53 41.27124 28.75653 334 ft 178 kts 179°
2026-05-08 17:54 41.25808 28.75670 867 ft 187 kts 179°
2026-05-08 17:54 41.24586 28.76047 1595 ft 182 kts 150°
2026-05-08 17:54 41.23629 28.77150 2163 ft 183 kts 136°
2026-05-08 17:54 41.22680 28.78229 2683 ft 183 kts 143°
2026-05-08 17:55 41.21660 28.79257 3195 ft 184 kts 145°
2026-05-08 17:55 41.20607 28.80265 3652 ft 189 kts 147°
2026-05-08 17:55 41.19476 28.81297 3951 ft 203 kts 148°
2026-05-08 17:55 41.18471 28.82700 4214 ft 222 kts 118°
2026-05-08 17:56 41.18199 28.84775 4499 ft 240 kts 90°
2026-05-08 17:56 41.18276 28.87079 4713 ft 259 kts 90°
2026-05-08 17:56 41.18345 28.89536 5007 ft 275 kts 86°
2026-05-08 17:56 41.18930 28.92039 5326 ft 291 kts 57°
2026-05-08 17:57 41.20384 28.93885 5933 ft 290 kts 27°
2026-05-08 17:57 41.22293 28.94604 6524 ft 287 kts 359°
2026-05-08 17:57 41.24257 28.94552 7101 ft 288 kts 355°
2026-05-08 17:57 41.26268 28.94450 7656 ft 292 kts 355°
2026-05-08 17:58 41.28316 28.94362 8234 ft 294 kts 353°
2026-05-08 17:58 41.30247 28.93653 8751 ft 290 kts 326°
2026-05-08 17:58 41.31708 28.91846 9305 ft 285 kts 300°
2026-05-08 17:58 41.32584 28.89509 9848 ft 284 kts 291°
2026-05-08 17:59 41.33398 28.87086 10307 ft 290 kts 291°
2026-05-08 17:59 41.34238 28.84607 10563 ft 304 kts 292°
2026-05-08 17:59 41.35135 28.81990 10823 ft 318 kts 292°
2026-05-08 17:59 41.36229 28.79342 11074 ft 334 kts 303°
2026-05-08 18:00 41.37706 28.76856 11340 ft 348 kts 308°
2026-05-08 18:00 41.40931 28.71758 11828 ft 374 kts 308°
2026-05-08 18:00 41.42615 28.69039 12177 ft 383 kts 307°
2026-05-08 18:01 41.44296 28.66289 12681 ft 386 kts 307°
2026-05-08 18:01 41.45997 28.63482 13191 ft 388 kts 307°
2026-05-08 18:01 41.47687 28.60680 13666 ft 392 kts 307°
2026-05-08 18:01 41.49382 28.57862 14139 ft 395 kts 307°
2026-05-08 18:02 41.51112 28.54979 14617 ft 398 kts 307°
2026-05-08 18:02 41.52261 28.53057 14931 ft 400 kts 307°
2026-05-08 18:02 41.54581 28.49176 15548 ft 403 kts 307°
2026-05-08 18:02 41.56332 28.46246 15992 ft 406 kts 307°
2026-05-08 18:03 41.58105 28.43265 16435 ft 408 kts 307°
2026-05-08 18:03 41.59874 28.40288 16874 ft 411 kts 307°
2026-05-08 18:03 41.61676 28.37251 17296 ft 413 kts 307°
2026-05-08 18:03 41.63463 28.34238 17696 ft 416 kts 306°
2026-05-08 18:04 41.65275 28.31179 18110 ft 419 kts 306°
2026-05-08 18:04 41.67098 28.28099 18514 ft 421 kts 306°
2026-05-08 18:04 41.68923 28.25013 18909 ft 423 kts 306°
2026-05-08 18:04 41.70174 28.22894 19173 ft 425 kts 306°
2026-05-08 18:05 41.72017 28.19774 19555 ft 427 kts 306°
2026-05-08 18:05 41.73891 28.16594 19932 ft 428 kts 306°
2026-05-08 18:05 41.75737 28.13462 20281 ft 430 kts 306°
2026-05-08 18:05 41.77587 28.10322 20645 ft 432 kts 306°
2026-05-08 18:06 41.79438 28.07176 21018 ft 433 kts 306°
2026-05-08 18:06 41.81333 28.03953 21388 ft 435 kts 306°
2026-05-08 18:06 41.83190 28.00789 21743 ft 436 kts 306°
2026-05-08 18:06 41.85025 27.97656 22088 ft 437 kts 306°
2026-05-08 18:07 41.86902 27.94450 22434 ft 438 kts 306°
2026-05-08 18:07 41.88773 27.91247 22777 ft 439 kts 306°
2026-05-08 18:07 41.90649 27.88032 23113 ft 440 kts 306°
2026-05-08 18:07 41.92545 27.84781 23445 ft 441 kts 306°
2026-05-08 18:08 41.94442 27.81525 23765 ft 442 kts 306°
2026-05-08 18:08 41.96381 27.78340 24079 ft 444 kts 309°
2026-05-08 18:08 41.98487 27.75246 24400 ft 446 kts 311°
2026-05-08 18:08 42.00672 27.72233 24715 ft 447 kts 312°
2026-05-08 18:09 42.02854 27.69257 25016 ft 448 kts 312°
2026-05-08 18:09 42.05037 27.66283 25319 ft 449 kts 312°
2026-05-08 18:09 42.07225 27.63293 25610 ft 451 kts 312°
2026-05-08 18:09 42.09443 27.60257 25893 ft 452 kts 313°
2026-05-08 18:10 42.11637 27.57247 26203 ft 453 kts 313°
2026-05-08 18:10 42.13850 27.54207 26569 ft 451 kts 313°
2026-05-08 18:10 42.16022 27.51219 26933 ft 450 kts 313°
2026-05-08 18:10 42.18215 27.48199 27283 ft 449 kts 313°
2026-05-08 18:11 42.20372 27.45223 27615 ft 448 kts 313°
2026-05-08 18:11 42.22569 27.42190 27972 ft 448 kts 313°
2026-05-08 18:11 42.24736 27.39194 28330 ft 447 kts 313°
2026-05-08 18:11 42.26903 27.36194 28685 ft 446 kts 313°
2026-05-08 18:12 42.29036 27.33239 29044 ft 445 kts 312°
2026-05-08 18:12 42.31200 27.30238 29433 ft 444 kts 312°
2026-05-08 18:12 42.33369 27.27226 29770 ft 445 kts 312°
2026-05-08 18:12 42.35522 27.24233 30049 ft 447 kts 312°
2026-05-08 18:13 42.37676 27.21234 30309 ft 450 kts 312°
2026-05-08 18:13 42.39891 27.18150 30549 ft 452 kts 312°
2026-05-08 18:13 42.41994 27.15219 30826 ft 452 kts 312°
2026-05-08 18:13 42.44168 27.12187 31153 ft 451 kts 312°
2026-05-08 18:14 42.46356 27.09132 31486 ft 450 kts 312°
2026-05-08 18:14 42.48528 27.06094 31813 ft 449 kts 312°
2026-05-08 18:14 42.50702 27.03052 32135 ft 448 kts 312°
2026-05-08 18:14 42.52846 27.00047 32432 ft 448 kts 312°
2026-05-08 18:15 42.55033 26.96978 32697 ft 448 kts 312°
2026-05-08 18:15 42.57181 26.93961 32950 ft 449 kts 312°
2026-05-08 18:15 42.59340 26.90925 33201 ft 450 kts 312°
2026-05-08 18:15 42.61525 26.87849 33452 ft 451 kts 312°
2026-05-08 18:16 42.63700 26.84784 33701 ft 451 kts 312°
2026-05-08 18:16 42.65871 26.81721 33917 ft 452 kts 312°
2026-05-08 18:16 42.68063 26.78627 34062 ft 453 kts 312°
2026-05-08 18:16 42.70259 26.75522 34107 ft 453 kts 312°
2026-05-08 18:17 42.74631 26.69329 34099 ft 452 kts 312°
2026-05-08 18:17 42.78996 26.63129 34069 ft 452 kts 312°
2026-05-08 18:18 42.83353 26.56938 34037 ft 452 kts 312°
2026-05-08 18:18 42.87709 26.50747 33980 ft 452 kts 312°
2026-05-08 18:19 42.92037 26.44577 33972 ft 452 kts 312°
2026-05-08 18:19 42.96402 26.38337 33985 ft 452 kts 312°
2026-05-08 18:20 43.00757 26.32097 33978 ft 452 kts 311°
2026-05-08 18:20 43.05111 26.25844 33972 ft 451 kts 311°
2026-05-08 18:21 43.09410 26.19655 33994 ft 451 kts 311°
2026-05-08 18:21 43.13761 26.13379 34002 ft 451 kts 311°
2026-05-08 18:22 43.18060 26.07163 34002 ft 450 kts 311°
2026-05-08 18:22 43.22368 26.00921 33998 ft 449 kts 311°
2026-05-08 18:23 43.26651 25.94700 33986 ft 449 kts 311°
2026-05-08 18:23 43.30926 25.88479 33980 ft 449 kts 311°
2026-05-08 18:24 43.35211 25.82228 33982 ft 449 kts 311°
2026-05-08 18:24 43.39513 25.75938 33986 ft 449 kts 311°
2026-05-08 18:25 43.43771 25.69699 33986 ft 449 kts 311°
2026-05-08 18:25 43.48050 25.63414 33986 ft 448 kts 311°
2026-05-08 18:26 43.52318 25.57130 33985 ft 448 kts 311°
2026-05-08 18:26 43.56573 25.50849 33991 ft 448 kts 311°
2026-05-08 18:27 43.60102 25.45628 33999 ft 448 kts 311°
2026-05-08 18:27 43.65226 25.38514 34004 ft 449 kts 315°
2026-05-08 18:28 43.69799 25.32620 34004 ft 449 kts 314°
2026-05-08 18:28 43.74408 25.26675 34003 ft 449 kts 314°
2026-05-08 18:29 43.78966 25.20771 34002 ft 449 kts 314°
2026-05-08 18:29 43.83525 25.14847 34001 ft 449 kts 314°
2026-05-08 18:30 43.88084 25.08908 34000 ft 449 kts 314°
2026-05-08 18:30 43.92635 25.02965 34000 ft 450 kts 314°
2026-05-08 18:31 43.97195 24.96998 34000 ft 450 kts 314°
2026-05-08 18:31 44.01736 24.91045 34000 ft 450 kts 314°
2026-05-08 18:32 44.06316 24.85026 34005 ft 450 kts 314°
2026-05-08 18:32 44.10863 24.79038 34007 ft 449 kts 314°
2026-05-08 18:33 44.15424 24.73016 34003 ft 448 kts 314°
2026-05-08 18:33 44.19928 24.67054 33999 ft 448 kts 314°
2026-05-08 18:34 44.23723 24.62022 33998 ft 448 kts 314°
2026-05-08 18:34 44.27681 24.56763 33998 ft 449 kts 314°
2026-05-08 18:35 44.32217 24.50725 34001 ft 449 kts 314°
2026-05-08 18:35 44.36714 24.44724 34003 ft 449 kts 314°
2026-05-08 18:36 44.41252 24.38656 34004 ft 449 kts 314°
2026-05-08 18:36 44.45749 24.32628 34005 ft 449 kts 313°
2026-05-08 18:37 44.50258 24.26571 34005 ft 449 kts 313°
2026-05-08 18:37 44.54788 24.20472 34006 ft 449 kts 313°
2026-05-08 18:38 44.59299 24.14385 34009 ft 449 kts 313°
2026-05-08 18:38 44.63718 24.08232 34010 ft 448 kts 311°
2026-05-08 18:39 44.68053 24.01960 34010 ft 448 kts 311°
2026-05-08 18:39 44.72402 23.95655 34011 ft 448 kts 311°
2026-05-08 18:40 44.76724 23.89386 34013 ft 447 kts 311°
2026-05-08 18:40 44.81042 23.83114 34018 ft 448 kts 311°
2026-05-08 18:41 44.85383 23.76797 34021 ft 448 kts 311°
2026-05-08 18:41 44.89692 23.70513 34022 ft 447 kts 311°
2026-05-08 18:42 44.94023 23.64183 34023 ft 447 kts 311°
2026-05-08 18:42 44.98335 23.57865 34021 ft 446 kts 311°
2026-05-08 18:43 45.02663 23.51509 34019 ft 445 kts 311°
2026-05-08 18:43 45.06941 23.45211 34026 ft 445 kts 311°
2026-05-08 18:44 45.11237 23.38872 33977 ft 445 kts 311°
2026-05-08 18:44 45.15515 23.32545 33882 ft 444 kts 310°
2026-05-08 18:45 45.19782 23.26221 33798 ft 444 kts 310°
2026-05-08 18:45 45.23978 23.19986 33796 ft 444 kts 310°
2026-05-08 18:46 45.28247 23.13628 33906 ft 445 kts 310°
2026-05-08 18:46 45.32511 23.07266 33703 ft 444 kts 310°
2026-05-08 18:47 45.34627 23.04102 33512 ft 444 kts 310°
2026-05-08 18:47 45.36779 23.00882 33277 ft 443 kts 310°
2026-05-08 18:47 45.38903 22.97696 33173 ft 444 kts 310°
2026-05-08 18:47 45.41005 22.94540 33214 ft 445 kts 310°
2026-05-08 18:48 45.43148 22.91320 33331 ft 444 kts 310°
2026-05-08 18:48 45.45285 22.88106 33498 ft 444 kts 310°
2026-05-08 18:48 45.47403 22.84918 33648 ft 445 kts 310°
2026-05-08 18:48 45.49528 22.81716 33771 ft 445 kts 310°
2026-05-08 18:49 45.53795 22.75274 33926 ft 445 kts 310°
2026-05-08 18:49 45.58022 22.68874 33959 ft 443 kts 310°
2026-05-08 18:50 45.62225 22.62497 33877 ft 442 kts 310°
2026-05-08 18:50 45.66443 22.56081 33715 ft 442 kts 310°
2026-05-08 18:51 45.68554 22.52865 33610 ft 442 kts 310°
2026-05-08 18:51 45.70658 22.49655 33462 ft 443 kts 310°
2026-05-08 18:51 45.72790 22.46399 33360 ft 443 kts 310°
2026-05-08 18:51 45.74878 22.43205 33384 ft 443 kts 310°
2026-05-08 18:52 45.76991 22.39971 33488 ft 443 kts 310°
2026-05-08 18:52 45.79085 22.36761 33671 ft 442 kts 310°
2026-05-08 18:53 45.85533 22.26854 33971 ft 442 kts 309°
2026-05-08 18:53 45.87635 22.23617 34021 ft 442 kts 309°
2026-05-08 18:53 45.91860 22.17100 34067 ft 441 kts 309°
2026-05-08 18:54 46.00355 22.03946 34006 ft 439 kts 309°
2026-05-08 18:55 46.06522 21.94355 34002 ft 439 kts 309°
2026-05-08 18:56 46.10669 21.87886 34002 ft 440 kts 309°
2026-05-08 18:56 46.14832 21.81376 34012 ft 440 kts 309°
2026-05-08 18:57 46.19019 21.74814 34016 ft 439 kts 309°
2026-05-08 18:57 46.23139 21.68343 34017 ft 439 kts 309°
2026-05-08 18:58 46.27259 21.61855 34016 ft 439 kts 309°
2026-05-08 18:58 46.31387 21.55338 34013 ft 439 kts 309°
2026-05-08 18:59 46.35540 21.48766 34012 ft 439 kts 308°
2026-05-08 18:59 46.39640 21.42259 34012 ft 439 kts 308°
2026-05-08 19:00 46.43052 21.36832 34011 ft 438 kts 308°
2026-05-08 19:00 46.47842 21.29190 34012 ft 438 kts 307°
2026-05-08 19:01 46.51986 21.22690 34012 ft 439 kts 309°
2026-05-08 19:01 46.56197 21.16252 34012 ft 439 kts 309°
2026-05-08 19:02 46.60381 21.09828 34012 ft 439 kts 308°
2026-05-08 19:02 46.64556 21.03388 34013 ft 438 kts 308°
2026-05-08 19:03 46.68672 20.97018 34013 ft 438 kts 308°
2026-05-08 19:03 46.72832 20.90561 34012 ft 438 kts 308°
2026-05-08 19:04 46.76999 20.84074 34012 ft 438 kts 308°
2026-05-08 19:04 46.81151 20.77597 34012 ft 438 kts 308°
2026-05-08 19:05 46.85315 20.71085 34013 ft 438 kts 308°
2026-05-08 19:05 46.89455 20.64595 34015 ft 439 kts 308°
2026-05-08 19:06 46.93515 20.58217 34015 ft 439 kts 308°
2026-05-08 19:06 46.97598 20.51786 34014 ft 439 kts 308°
2026-05-08 19:07 47.01722 20.45274 34012 ft 438 kts 308°
2026-05-08 19:07 47.05853 20.38737 34011 ft 438 kts 308°
2026-05-08 19:08 47.09980 20.32188 34011 ft 437 kts 307°
2026-05-08 19:08 47.14098 20.25639 34010 ft 437 kts 307°
2026-05-08 19:09 47.18216 20.19074 34010 ft 436 kts 307°
2026-05-08 19:09 47.22329 20.12499 34010 ft 436 kts 307°
2026-05-08 19:10 47.26420 20.05944 34010 ft 436 kts 306°
2026-05-08 19:10 47.30441 19.99486 34010 ft 435 kts 306°
2026-05-08 19:11 47.34535 19.92894 34011 ft 435 kts 306°
2026-05-08 19:11 47.38614 19.86307 34020 ft 434 kts 306°
2026-05-08 19:12 47.42670 19.79743 34027 ft 434 kts 306°
2026-05-08 19:12 47.46716 19.73179 34022 ft 434 kts 306°
2026-05-08 19:13 47.50782 19.66568 34022 ft 433 kts 306°
2026-05-08 19:13 47.54815 19.59991 34025 ft 433 kts 306°
2026-05-08 19:14 47.58844 19.53406 34031 ft 433 kts 306°
2026-05-08 19:14 47.62894 19.46770 34035 ft 433 kts 306°
2026-05-08 19:15 47.66930 19.40142 34036 ft 433 kts 306°
2026-05-08 19:15 47.70978 19.33476 34038 ft 433 kts 305°
2026-05-08 19:16 47.74942 19.26932 34039 ft 433 kts 305°
2026-05-08 19:16 47.78936 19.20322 34041 ft 433 kts 306°
2026-05-08 19:17 47.82879 19.13780 34044 ft 433 kts 306°
2026-05-08 19:17 47.86827 19.07214 34050 ft 433 kts 306°
2026-05-08 19:18 47.90762 19.00653 34057 ft 432 kts 306°
2026-05-08 19:18 47.94707 18.94054 34063 ft 432 kts 306°
2026-05-08 19:19 47.98707 18.87344 34063 ft 432 kts 306°
2026-05-08 19:19 48.02629 18.80822 34059 ft 433 kts 307°
2026-05-08 19:20 48.06770 18.74338 34058 ft 433 kts 308°
2026-05-08 19:20 48.10930 18.67842 34064 ft 432 kts 308°
2026-05-08 19:21 48.15020 18.61423 34068 ft 430 kts 308°
2026-05-08 19:21 48.19241 18.55035 34059 ft 432 kts 311°
2026-05-08 19:22 48.23831 18.49175 34061 ft 435 kts 315°
2026-05-08 19:22 48.28524 18.43424 34065 ft 435 kts 315°
2026-05-08 19:23 48.33215 18.37659 34068 ft 435 kts 315°
2026-05-08 19:23 48.37884 18.31900 34072 ft 434 kts 314°
2026-05-08 19:24 48.42554 18.26121 34074 ft 434 kts 314°
2026-05-08 19:24 48.47222 18.20330 34072 ft 434 kts 314°
2026-05-08 19:25 48.51878 18.14539 34069 ft 434 kts 314°
2026-05-08 19:25 48.56494 18.08783 34066 ft 434 kts 314°
2026-05-08 19:26 48.61090 18.03038 34069 ft 434 kts 314°
2026-05-08 19:26 48.65610 17.97374 34065 ft 434 kts 314°
2026-05-08 19:27 48.70242 17.91552 34042 ft 433 kts 314°
2026-05-08 19:27 48.74873 17.85714 34039 ft 433 kts 314°
2026-05-08 19:28 48.79122 17.80346 34061 ft 433 kts 314°
2026-05-08 19:28 48.83550 17.73858 34067 ft 427 kts 306°
2026-05-08 19:29 48.87182 17.66836 34069 ft 421 kts 299°
2026-05-08 19:29 48.90127 17.59246 34069 ft 416 kts 292°
2026-05-08 19:30 48.92572 17.51414 34069 ft 415 kts 291°
2026-05-08 19:30 48.94982 17.43540 34069 ft 415 kts 291°
2026-05-08 19:31 48.97404 17.35612 34068 ft 415 kts 291°
2026-05-08 19:31 48.99783 17.27812 34068 ft 415 kts 290°
2026-05-08 19:32 49.02205 17.19845 34068 ft 415 kts 290°
2026-05-08 19:32 49.04626 17.11857 34069 ft 415 kts 290°
2026-05-08 19:33 49.07037 17.03875 34070 ft 416 kts 290°
2026-05-08 19:33 49.09420 16.95963 34072 ft 416 kts 290°
2026-05-08 19:34 49.11782 16.88099 34076 ft 417 kts 290°
2026-05-08 19:34 49.14191 16.80046 34082 ft 417 kts 290°
2026-05-08 19:35 49.16559 16.72110 34086 ft 418 kts 290°
2026-05-08 19:35 49.18944 16.64088 34088 ft 418 kts 290°
2026-05-08 19:36 49.21324 16.56057 34089 ft 418 kts 290°
2026-05-08 19:36 49.23721 16.47938 34089 ft 418 kts 290°
2026-05-08 19:37 49.26092 16.39873 34090 ft 418 kts 290°
2026-05-08 19:37 49.28481 16.31718 34093 ft 418 kts 290°
2026-05-08 19:38 49.30813 16.23859 34095 ft 419 kts 292°
2026-05-08 19:38 49.33510 16.15928 34095 ft 421 kts 294°
2026-05-08 19:39 49.36262 16.07968 34092 ft 421 kts 294°
2026-05-08 19:39 49.38947 16.00168 34089 ft 421 kts 294°
2026-05-08 19:40 49.41595 15.92444 34088 ft 421 kts 294°
2026-05-08 19:40 49.44287 15.84561 34092 ft 422 kts 294°
2026-05-08 19:41 49.47014 15.76556 34095 ft 423 kts 294°
2026-05-08 19:41 49.49742 15.68537 34095 ft 424 kts 294°
2026-05-08 19:42 49.52477 15.60462 34099 ft 424 kts 294°
2026-05-08 19:42 49.55199 15.52389 34104 ft 424 kts 294°
2026-05-08 19:43 49.57899 15.44356 34109 ft 425 kts 294°
2026-05-08 19:43 49.60607 15.36269 34109 ft 425 kts 294°
2026-05-08 19:44 49.63320 15.28135 34104 ft 425 kts 293°
2026-05-08 19:44 49.66020 15.20027 34100 ft 426 kts 294°
2026-05-08 19:45 49.69214 15.12268 34110 ft 431 kts 303°
2026-05-08 19:45 49.73253 15.05387 34117 ft 437 kts 313°
2026-05-08 19:46 49.78023 14.99642 34119 ft 444 kts 322°
2026-05-08 19:46 49.85954 14.92225 34135 ft 445 kts 325°
2026-05-08 19:47 49.91300 14.87275 34157 ft 445 kts 325°
2026-05-08 19:47 49.96596 14.82336 34166 ft 445 kts 325°
2026-05-08 19:48 50.01765 14.77536 34168 ft 446 kts 326°
2026-05-08 19:48 50.07333 14.73227 34168 ft 450 kts 333°
2026-05-08 19:49 50.13174 14.69906 33934 ft 453 kts 340°
2026-05-08 19:49 50.16140 14.68610 33603 ft 452 kts 341°
2026-05-08 19:49 50.19070 14.67413 33127 ft 450 kts 342°
2026-05-08 19:50 50.22085 14.66199 32521 ft 451 kts 342°
2026-05-08 19:50 50.25161 14.64958 31774 ft 453 kts 342°
2026-05-08 19:50 50.28210 14.63722 30999 ft 454 kts 342°
2026-05-08 19:50 50.31237 14.62490 30270 ft 455 kts 342°
2026-05-08 19:51 50.34318 14.61231 29516 ft 456 kts 342°
2026-05-08 19:51 50.37349 14.59989 28692 ft 457 kts 342°
2026-05-08 19:51 50.40416 14.58728 27839 ft 456 kts 342°
2026-05-08 19:51 50.43443 14.57483 27007 ft 456 kts 342°
2026-05-08 19:52 50.46492 14.56227 26168 ft 454 kts 342°
2026-05-08 19:52 50.49540 14.54969 25340 ft 451 kts 342°
2026-05-08 19:52 50.52535 14.53732 24765 ft 442 kts 342°
2026-05-08 19:52 50.55521 14.52496 24206 ft 438 kts 342°
2026-05-08 19:53 50.58445 14.51282 23661 ft 435 kts 342°
2026-05-08 19:53 50.61338 14.50080 23167 ft 432 kts 342°
2026-05-08 19:53 50.64238 14.48874 22663 ft 429 kts 342°
2026-05-08 19:53 50.67080 14.47691 22142 ft 425 kts 342°
2026-05-08 19:54 50.69945 14.46496 21602 ft 421 kts 342°
2026-05-08 19:54 50.72751 14.45325 21064 ft 418 kts 343°
2026-05-08 19:54 50.75554 14.44152 20520 ft 414 kts 343°
2026-05-08 19:54 50.78318 14.42994 19975 ft 410 kts 343°
2026-05-08 19:55 50.81006 14.41867 19435 ft 406 kts 343°
2026-05-08 19:55 50.83726 14.40725 18887 ft 402 kts 343°
2026-05-08 19:55 50.86386 14.39607 18345 ft 398 kts 343°
2026-05-08 19:55 50.89050 14.38449 17788 ft 394 kts 340°
2026-05-08 19:56 50.91427 14.36440 17215 ft 384 kts 320°
2026-05-08 19:56 50.93191 14.33364 16659 ft 377 kts 301°
2026-05-08 19:56 50.94220 14.29744 16129 ft 372 kts 286°
2026-05-08 19:56 50.94865 14.25946 15621 ft 371 kts 280°
2026-05-08 19:57 50.94903 14.21885 15093 ft 370 kts 262°
2026-05-08 19:57 50.94344 14.17889 14540 ft 367 kts 256°
2026-05-08 19:57 50.93684 14.14048 13938 ft 366 kts 255°
2026-05-08 19:57 50.93000 14.10190 13349 ft 364 kts 255°
2026-05-08 19:58 50.92312 14.06334 12765 ft 361 kts 255°
2026-05-08 19:58 50.91629 14.02517 12174 ft 358 kts 255°
2026-05-08 19:58 50.90951 13.98735 11570 ft 356 kts 255°
2026-05-08 19:58 50.90291 13.95050 10966 ft 354 kts 255°
2026-05-08 19:59 50.89624 13.91332 10353 ft 352 kts 255°
2026-05-08 19:59 50.88960 13.87634 9744 ft 349 kts 255°
2026-05-08 19:59 50.88298 13.83938 9366 ft 337 kts 255°
2026-05-08 19:59 50.87888 13.80419 8955 ft 318 kts 269°
2026-05-08 20:00 50.87958 13.77034 8535 ft 302 kts 274°
2026-05-08 20:00 50.88110 13.73838 8152 ft 285 kts 275°
2026-05-08 20:00 50.88269 13.70783 7838 ft 269 kts 275°
2026-05-08 20:00 50.88419 13.67933 7606 ft 257 kts 275°
2026-05-08 20:01 50.88564 13.65166 7401 ft 247 kts 275°
2026-05-08 20:01 50.88705 13.62475 7212 ft 239 kts 275°
2026-05-08 20:01 50.88839 13.59892 6919 ft 236 kts 275°
2026-05-08 20:01 50.88973 13.57290 6572 ft 236 kts 275°
2026-05-08 20:02 50.89186 13.54758 6219 ft 235 kts 289°
2026-05-08 20:02 50.90068 13.52611 5837 ft 234 kts 322°
2026-05-08 20:02 50.91507 13.51580 5524 ft 223 kts 354°
2026-05-08 20:02 50.93017 13.51549 5385 ft 209 kts
2026-05-08 20:03 50.94405 13.51813 5184 ft 199 kts 15°
2026-05-08 20:03 50.95645 13.52697 4812 ft 199 kts 31°
2026-05-08 20:03 50.96777 13.53978 4439 ft 197 kts 37°
2026-05-08 20:03 50.97819 13.55299 4214 ft 188 kts 39°
2026-05-08 20:04 50.98819 13.56630 3998 ft 183 kts 40°
2026-05-08 20:04 50.99788 13.57953 3985 ft 185 kts 41°
2026-05-08 20:04 51.00756 13.59295 3842 ft 183 kts 41°
2026-05-08 20:04 51.01709 13.60618 3587 ft 178 kts 41°
2026-05-08 20:05 51.02629 13.61889 3349 ft 176 kts 41°
2026-05-08 20:05 51.03563 13.63176 3101 ft 175 kts 41°
2026-05-08 20:05 51.04474 13.64439 2860 ft 174 kts 41°
2026-05-08 20:05 51.05385 13.65700 2621 ft 168 kts 41°
2026-05-08 20:06 51.06227 13.66862 2374 ft 153 kts 41°
2026-05-08 20:06 51.07014 13.67946 2171 ft 147 kts 42°
2026-05-08 20:06 51.07782 13.69007 1990 ft 147 kts 42°
2026-05-08 20:06 51.08544 13.70060 1804 ft 146 kts 42°
2026-05-08 20:07 51.09318 13.71127 1609 ft 146 kts 41°
2026-05-08 20:07 51.10078 13.72174 1410 ft 145 kts 41°
2026-05-08 20:07 51.10815 13.73189 1216 ft 145 kts 41°
2026-05-08 20:07 51.11512 13.74147 1038 ft 144 kts 41°
2026-05-08 20:08 51.12273 13.75188 851 ft 143 kts 41°
2026-05-08 20:08 51.12984 13.76179 744 ft 125 kts 41°
2026-05-08 20:08 51.13421 13.76784 729 ft 51 kts 41°
2026-05-08 20:08 51.13678 13.77134 719 ft 46 kts 41°
2026-05-08 20:09 51.13865 13.77392 714 ft 17 kts 41°
2026-05-08 20:09 51.13905 13.77478 712 ft 9 kts 85°
2026-05-08 20:09 51.13866 13.77575 711 ft 11 kts 131°
2026-05-08 20:09 51.13808 13.77684 709 ft 10 kts 130°
2026-05-08 20:10 51.13767 13.77722 709 ft 6 kts 186°
2026-05-08 20:10 51.13732 13.77689 711 ft 5 kts 223°
2026-05-08 20:10 51.13708 13.77655 712 ft 3 kts 222°
2026-05-08 20:10 51.13692 13.77632 713 ft 2 kts 219°
2026-05-08 20:11 51.13676 13.77612 713 ft 3 kts 219°
2026-05-08 20:11 51.13659 13.77590 714 ft 3 kts 219°
2026-05-08 20:11 51.13637 13.77559 715 ft 4 kts 222°
2026-05-08 20:11 51.13611 13.77521 716 ft 4 kts 222°
2026-05-08 20:12 51.13590 13.77492 717 ft 3 kts 221°
2026-05-08 20:12 51.13567 13.77460 718 ft 5 kts 221°
2026-05-08 20:12 51.13536 13.77418 720 ft 6 kts 221°
2026-05-08 20:12 51.13500 13.77369 722 ft 7 kts 221°
2026-05-08 20:13 51.13461 13.77314 724 ft 7 kts 221°
2026-05-08 20:13 51.13420 13.77259 727 ft 7 kts 221°
2026-05-08 20:13 51.13381 13.77204 730 ft 7 kts 221°
2026-05-08 20:13 51.13340 13.77148 732 ft 8 kts 220°
2026-05-08 20:14 51.13294 13.77087 735 ft 8 kts 221°
2026-05-08 20:14 51.13246 13.77020 738 ft 9 kts 221°
2026-05-08 20:14 51.13196 13.76950 740 ft 10 kts 221°
2026-05-08 20:14 51.13139 13.76871 741 ft 11 kts 221°
2026-05-08 20:15 51.13083 13.76792 742 ft 10 kts 222°
2026-05-08 20:15 51.13032 13.76721 744 ft 9 kts 221°
2026-05-08 20:15 51.12986 13.76660 746 ft 8 kts 220°
2026-05-08 20:15 51.12934 13.76589 745 ft 11 kts 221°
2026-05-08 20:16 51.12873 13.76503 747 ft 11 kts 221°
2026-05-08 20:16 51.12822 13.76449 749 ft 7 kts 190°
2026-05-08 20:16 51.12779 13.76474 751 ft 6 kts 135°
2026-05-08 20:16 51.12754 13.76521 752 ft 5 kts 129°
2026-05-08 20:17 51.12731 13.76555 753 ft 3 kts 163°
2026-05-08 20:17 51.12712 13.76548 754 ft 2 kts 209°
2026-05-08 20:17 51.12703 13.76539 754 ft 0 kts 215°
2026-05-08 20:17 51.12697 13.76532 754 ft 2 kts 219°
2026-05-08 20:18 51.12683 13.76513 755 ft 2 kts 219°
2026-05-08 20:18 51.12674 13.76501 755 ft 1 kts 220°
2026-05-08 20:18 51.12664 13.76488 756 ft 1 kts 221°
2026-05-08 20:18 51.12656 13.76477 756 ft 0 kts 221°